Date,TemperatureHighF,TemperatureAvgF,TemperatureLowF,DewpointHighF,DewpointAvgF,DewpointLowF,HumidityHigh,HumidityAvg,HumidityLow,PressureMaxIn,PressureMinIn,WindSpeedMaxMPH,WindSpeedAvgMPH,GustSpeedMaxMPH,PrecipitationSumIn
2013-3-1,74,53,33,28,20,12,60,33,11,30.34,30.18,10,-5,10,0.00
2013-3-2,84,60,37,31,26,5,69,34,6,30.30,30.06,10,2,10,0.00
2013-3-3,80,63,42,32,25,12,62,30,9,30.08,29.86,18,3,18,0.00
2013-3-4,72,63,48,33,29,18,54,29,16,30.01,29.81,27,5,27,0.00
2013-3-5,80,61,43,34,30,22,65,37,13,30.08,29.92,16,2,16,0.00
2013-3-6,82,65,49,38,32,22,60,33,14,29.97,29.80,17,2,17,0.00
2013-3-7,80,63,45,33,27,15,57,31,9,29.91,29.80,23,3,23,0.00
2013-3-8,69,58,44,49,38,28,71,49,29,29.93,29.68,35,7,35,0.06
2013-3-9,53,47,43,39,36,33,80,66,53,30.09,29.93,18,4,18,0.01
2013-3-10,67,52,38,39,34,26,87,55,25,30.16,30.04,15,2,15,0.00
2013-3-11,73,55,36,34,31,27,75,45,20,30.17,29.98,13,2,13,0.00
2013-3-12,82,60,37,36,31,25,75,41,13,30.07,29.94,11,2,11,0.00
2013-3-13,89,67,43,37,29,18,69,32,8,30.09,29.93,18,3,18,0.00
2013-3-14,92,71,47,32,22,6,51,22,4,30.05,29.89,19,3,19,0.00
2013-3-15,94,71,49,30,24,0,45,21,3,29.96,29.80,25,3,25,0.00
2013-3-16,89,70,48,31,22,4,45,20,5,29.85,29.62,24,4,24,0.00
2013-3-17,83,66,49,27,23,16,37,21,8,29.85,29.71,28,5,28,0.00
2013-3-18,82,66,50,36,27,15,46,26,9,29.94,29.83,19,3,19,0.00
2013-3-19,80,65,49,38,30,25,51,29,15,29.98,29.86,21,3,21,0.00
2013-3-20,83,66,48,35,30,25,52,29,13,29.99,29.80,16,-164,16,0.00
2013-3-21,77,65,51,37,33,28,50,31,19,29.80,29.65,17,2,17,0.00
2013-3-22,81,68,52,35,32,27,48,28,16,29.73,29.58,24,4,24,0.00
2013-3-23,75,62,47,34,22,-1,56,26,6,29.93,29.73,28,5,28,0.00
2013-3-24,77,59,39,16,8,-8,35,16,4,29.98,29.82,22,4,22,0.00
2013-3-25,81,62,41,20,16,10,37,19,8,29.97,29.83,17,3,17,0.00
2013-3-26,86,66,47,24,13,-100,39,17,5,29.93,29.75,18,3,18,0.00
2013-3-27,86,69,49,27,20,14,37,17,8,29.93,29.80,18,-315,18,0.00
2013-3-28,84,69,49,35,24,17,36,19,9,29.97,29.86,16,3,16,0.00
2013-3-29,86,70,51,37,24,14,36,19,8,30.01,29.89,19,2,19,0.00
2013-3-30,83,69,54,32,24,14,33,20,8,29.98,29.83,18,2,18,0.00
2013-3-31,86,68,48,33,28,24,49,26,12,29.98,29.82,17,2,17,0.00